TimeCST,TemperatureF,Dew PointF,Humidity,Sea Level PressureIn,VisibilityMPH,Wind Direction,Wind SpeedMPH,Gust SpeedMPH,PrecipitationIn,Events,Conditions,WindDirDegrees,DateUTC
12:58 AM,36.7,34.3,91,30.34,10.0,North,2.3,-,N/A,,Partly Cloudy,350,2013-12-26 06:58:00
1:58 AM,37.6,34.0,87,30.35,10.0,NNE,2.3,-,N/A,,Clear,30,2013-12-26 07:58:00
2:58 AM,38.1,34.3,86,30.35,10.0,NNE,3.5,-,N/A,,Mostly Cloudy,30,2013-12-26 08:58:00
3:58 AM,36.9,33.3,87,30.33,10.0,North,4.6,-,N/A,,Clear,10,2013-12-26 09:58:00
4:58 AM,35.6,32.0,87,30.32,10.0,NNE,4.6,-,N/A,,Clear,20,2013-12-26 10:58:00
5:58 AM,35.4,32.4,89,30.35,10.0,North,4.6,-,N/A,,Clear,350,2013-12-26 11:58:00
6:58 AM,35.8,31.1,83,30.38,10.0,North,4.6,-,N/A,,Clear,10,2013-12-26 12:58:00
7:58 AM,38.1,32.2,79,30.38,10.0,North,8.1,-,N/A,,Clear,10,2013-12-26 13:58:00
8:58 AM,39.7,32.0,74,30.40,10.0,NNE,6.9,-,N/A,,Clear,20,2013-12-26 14:58:00
9:58 AM,42.8,32.5,67,30.40,8.0,NNE,5.8,-,N/A,,Clear,20,2013-12-26 15:58:00
10:58 AM,48.7,32.4,53,30.38,10.0,NNE,6.9,-,N/A,,Clear,20,2013-12-26 16:58:00
11:58 AM,52.9,31.5,44,30.35,10.0,North,8.1,-,N/A,,Clear,10,2013-12-26 17:58:00
12:58 PM,54.7,30.9,40,30.32,10.0,Variable,3.5,-,N/A,,Clear,0,2013-12-26 18:58:00
1:58 PM,56.3,30.2,37,30.29,10.0,North,4.6,-,N/A,,Clear,10,2013-12-26 19:58:00
2:58 PM,57.2,30.7,37,30.29,10.0,North,9.2,-,N/A,,Clear,350,2013-12-26 20:58:00
3:58 PM,55.2,32.4,42,30.29,10.0,North,5.8,-,N/A,,Clear,350,2013-12-26 21:58:00
4:58 PM,51.4,32.7,49,30.31,10.0,NW,3.5,-,N/A,,Clear,320,2013-12-26 22:58:00
5:58 PM,45.5,35.4,68,30.32,10.0,Calm,Calm,-,N/A,,Clear,0,2013-12-26 23:58:00
6:58 PM,44.2,35.2,71,30.32,10.0,North,4.6,-,N/A,,Clear,360,2013-12-27 00:58:00
7:58 PM,44.8,31.8,60,30.33,10.0,North,3.5,-,N/A,,Clear,10,2013-12-27 01:58:00
8:58 PM,45.3,31.6,59,30.33,10.0,NE,4.6,-,N/A,,Clear,40,2013-12-27 02:58:00
9:58 PM,43.2,32.2,65,30.34,10.0,NNE,4.6,-,N/A,,Clear,20,2013-12-27 03:58:00
10:58 PM,42.6,31.6,65,30.34,10.0,North,4.6,-,N/A,,Clear,10,2013-12-27 04:58:00
11:58 PM,40.5,31.5,70,30.35,10.0,NNE,4.6,-,N/A,,Clear,20,2013-12-27 05:58:00